Regional Weather Roundup
Issued by NWS

Home | Current Version | Previous Version | Text Only | Print | Product List | Glossary On
Versions: 1 2 3 4 5 6 7 8 9 10 11 12 13 14 15 16 17 18 19 20 21 22 23 24 25 26 27 28 29 30 31 32 33 34 35 36 37 38 39 40 41 42 43 44 45 46 47 48 49 50
000
ASUS44 KMEG 030010
RWRTN
TENNESSEE HOURLY STATE WEATHER ROUNDUP
NATIONAL WEATHER SERVICE MEMPHIS TN
700 PM CDT WED SEP 02 2015

TNZ002-004-019-021-049-052-054-088>092-030100-
WEST TENNESSEE

CITY           SKY/WX    TMP DP  RH WIND       PRES   REMARKS
MEMPHIS INTL   MOCLDY    82  73  74 CALM      30.00F
NWS MEMPHIS      N/A     80 N/A N/A MISG        N/A
JACKSON        CLEAR     83  73  72 CALM      30.01S
DYERSBURG      CLEAR     84  73  70 CALM      29.99F HX  91
UNION CITY     PTCLDY    88  70  55 CALM      29.99S HX  92
PARIS          CLEAR     82  70  65 CALM      30.01F
LEXINGTON      CLEAR     79  75  89 CALM      30.00F
$$

TNZ008-025-027-028-033-062-065-066-030100-
NORTH MIDDLE TENNESSEE

CITY           SKY/WX    TMP DP  RH WIND       PRES   REMARKS
NASHVILLE      CLOUDY    87  66  49 E3        30.01F
CLARKSVILLE    PTCLDY    87  67  51 NE3       30.00F HX  90
SMYRNA         MOCLDY    85  70  60 SE5       30.01F
COOKEVILLE     CLEAR     79  73  83 CALM      30.03F
CROSSVILLE     MOCLDY    79  67  66 N3        30.09F
$$

TNZ061-075-076-078-094-096-097-030100-
SOUTH MIDDLE TENNESSEE

CITY           SKY/WX    TMP DP  RH WIND       PRES   REMARKS
FAYETTEVILLE   PTCLDY    81  72  74 CALM      30.03F
TULLAHOMA      CLEAR     79  73  83 CALM      30.05S
WINCHESTER     CLEAR     81  72  74 CALM      30.04S
MCMINNVILLE    CLEAR     81  73  78 CALM      30.04S
COLUMBIA       CLEAR     84  73  70 SW3       30.01S HX  91
SHELBYVILLE    CLEAR     81  75  83 S3        30.03F
$$

TNZ017-018-042-046-047-030100-
NORTHEAST TENNESSEE

CITY           SKY/WX    TMP DP  RH WIND       PRES   REMARKS
TRI CITIES     MOCLDY    79  69  71 CALM      30.04S
ELIZABETHTON   CLEAR     73  66  78 CALM      30.05S
$$

TNZ012-013-036-069-073-074-030100-
CENTRAL EAST TENNESSEE

CITY           SKY/WX    TMP DP  RH WIND       PRES   REMARKS
KNOXVILLE      MOCLDY    84  67  56 NW3       30.01S
OAK RIDGE      PTCLDY    81  70  69 CALM      30.03F
GATLINBURG     CLEAR     84  64  51 CALM      30.01S
MORRISTOWN     CLEAR     82  68  61 CALM      30.05R
$$

TNZ083-085-099-030100-
SOUTHEAST TENNESSEE

CITY           SKY/WX    TMP DP  RH WIND       PRES   REMARKS
CHATTANOOGA    CLOUDY    84  68  58 CALM      30.01S
$$

SKY/WX REPORTED AS FAIR MEANS FEW OR NO CLOUDS BELOW
12 THOUSAND FEET.




USA.gov is the U.S. government's official web portal to all federal, state and local government web resources and services.